Location: Moscow
(55.7500°N, 37.5830°E)
Time: 06:19:33
(UTC+03:00)

Envisat - Pass Details

Date: 30 October 2021
Orbit: 764 x 766 km, 98.2° (Epoch: 28 November)

Event Time Altitude Azimuth Distance (km) Brightness Sun altitude
Rises 18:14:30 0° 219° (SW) 3,226 7.0 -11.7°
Reaches altitude 10° 18:17:54 10° 243° (WSW) 2,306 6.7 -12.2°
Maximum altitude 18:20:40 15° 277° (W) 2,007 6.4 -12.6°
Drops below altitude 10° 18:23:27 10° 310° (NW) 2,315 6.1 -12.9°
Sets 18:26:53 0° 334° (NNW) 3,247 6.5 -13.4°
